Regional Weather Roundup
Issued by NWS Newport/Morehead, NC

Current Version | Previous Version | Text Only | Print | Product List | Glossary Off
Versions: 1 2 3 4 5 6 7 8 9 10 11 12 13 14 15 16 17 18 19 20 21 22 23 24 25 26 27 28 29 30 31 32 33 34 35 36 37 38 39 40 41 42 43 44 45 46 47 48 49 50
000 ASUS42 KMHX 190925 RWRMHX WEATHER ROUNDUP FOR EASTERN NORTH CAROLINA NATIONAL WEATHER SERVICE NEWPORT/MOREHEAD CITY NC 400 AM EST MON FEB 19 2018 NOTE: "FAIR" INDICATES FEW OR NO CLOUDS BELOW 12,000 FEET WITH NO SIGNIFICANT WEATHER AND/OR OBSTRUCTIONS TO VISIBILITY NCZ015>017-031-032-045>047-102-103-191000- NORTH COAST CITY SKY/WX TMP DP RH WIND PRES REMARKS EDENTON CLOUDY 47 43 84 E8 30.46F ELIZABETH CITY CLOUDY 45 41 86 E10 30.47F KITTY HAWK CLOUDY 45 45 100 E6 30.46S MANTEO CLOUDY 47 42 84 E10G17 30.47F $$ NCZ045>047-081-094-103-104-191000- CENTRAL COAST CITY SKY/WX TMP DP RH WIND PRES REMARKS FRISCO CLOUDY 50 46 86 NE9G17 30.44S $$ NCZ095-097-098-100-101-191000- SOUTHERN COAST CITY SKY/WX TMP DP RH WIND PRES REMARKS BEAUFORT CLOUDY 50 45 83 NE9 30.42F CEDAR ISLAND NOT AVBL JACKSONVILLE CLOUDY 49 45 86 E7 30.40S PINEY ISLAND NOT AVBL WILMINGTON CLOUDY 50 46 86 E8 30.40R $$ NCZ011>013-027>030-043-044-078>080-089-090>093-098-191000- COASTAL PLAIN CITY SKY/WX TMP DP RH WIND PRES REMARKS AHOSKIE CLOUDY 41 37 86 CALM 30.46S CLINTON CLOUDY 45 44 97 NE3 30.42R ELIZABETHTOWN NOT AVBL GOLDSBORO LGT RAIN 46 37 71 NE6 30.41R GREENVILLE MOCLDY 45 37 76 E8 30.44S HAVELOCK CLOUDY 51 47 86 E14 30.43F KENANSVILLE CLOUDY 46 39 76 CALM 30.41S KINSTON CLOUDY 46 40 79 NE8 30.43R HAZE NEW BERN CLOUDY 47 41 80 E7 30.43F RICHLANDS CLOUDY 47 42 83 E9 30.41F ROCKY MOUNT LGT RAIN 43 37 79 NE3 30.45S WASHINGTON CLOUDY 45 38 77 E7 30.45S WHITEVILLE CLOUDY 47 46 93 NE5 30.38S $$ AMZ130-135-150-152-154-156-158-170-250-252-270-ANZ085-086-088-633-658-670-191000- MARINE OBSERVATIONS STATION/POSITION TIME TEMP WIND PRES WAVE SWELL AIR SEA DIR/SP/G HT/PER HT/PER (UTC) (F) (DEG/KT/KT) (MB) (FT/S) (FT/S) CHESAPEAKE LIGHT NOT AVBL 64 E VA BEACH 0850 49 49 70/ 12/ 14 1032.7 3/ 7 2/ 7 DUCK 0900 45 45 70/ 9/ 10 1031.6 2 E DUCK 0900 44 N/A 3/ 6 OREGON INLET 0900 46 48 40/ 7/ 9 1031.9 13E OREGON INLT 0818 46 N/A 4/10 3/10 HATTERAS CG 0900 51 56 50/ 9/ 16 1030.5 DIAMOND BUOY 0910 64 110/ 12/ 17 1030.9 CAPE LOOKOUT 0900 40/ 16/ 17 1030.0 BEAUFORT LAB 0900 50 54 40/ 6/ 10 1030.0 30 SE NEW RVR IN 0808 64 63 130/ 10/ 14 1029.1 30 SE NEW RVR IN 0900 63 N/A 5/ 6 27 SE WRIGHTSVLE 0808 64 68 120/ 17/ 25 1028.6 5 SE WRIGHTSVLE 0808 52 53 60/ 16/ 21 1028.7 225 S CAPE HAT 0850 69 72 70/ 16/ 19 1028.0 6/ 8 3/15 41 SE CHARLESTON 0910 69 120/ 10/ 12 1026.7 $$

USA.gov is the U.S. government's official web portal to all federal, state and local government web resources and services.